Location: Moscow
(55.7500°N, 37.5830°E)
Time: 19:36:56
(UTC+03:00)

ISS - Pass Details

Date: 21 May 2021
Orbit: 417 x 422 km, 51.6° (Epoch: 16 June)

Event Time Altitude Azimuth Distance (km) Brightness Sun altitude
Rises 23:11:36 0° 270° (W) 2,369 0.3 -12.3°
Reaches altitude 10° 23:13:49 10° 260° (W) 1,505 -0.9 -12.4°
Maximum altitude 23:16:53 33° 195° (SSW) 739 -3.0 -12.5°
Enters shadow 23:18:23 22° 148° (SSE) 979 -2.5 -12.5°
